Time,TemperatureF,DewpointF,PressureIn,WindDirection,WindDirectionDegrees,WindSpeedMPH,WindSpeedGustMPH,Humidity,HourlyPrecipIn,Conditions,Clouds,dailyrainin,SoftwareType,DateUTC
2013-02-24 00:13:00,42.9,36.0,30.77,NNE,31,0.0,-999.0,78,-99.99,,,0.00,weatherlink.com 1.10,2013-02-24 06:13:00,
2013-02-24 00:28:00,41.9,36.0,30.78,NNE,31,0.0,-999.0,79,-99.99,,,0.00,weatherlink.com 1.10,2013-02-24 06:28:00,
2013-02-24 00:48:00,41.5,36.0,30.77,NNE,31,0.0,-999.0,81,-99.99,,,0.00,weatherlink.com 1.10,2013-02-24 06:48:00,
2013-02-24 00:58:00,41.9,37.0,30.77,NNE,31,0.0,-999.0,82,-99.99,,,0.00,weatherlink.com 1.10,2013-02-24 06:58:00,
2013-02-24 01:13:00,42.4,37.0,30.76,NNE,31,0.0,-999.0,82,-99.99,,,0.00,weatherlink.com 1.10,2013-02-24 07:13:00,
2013-02-24 01:28:00,44.3,39.0,30.75,NNE,31,0.0,-999.0,80,-99.99,,,0.00,weatherlink.com 1.10,2013-02-24 07:28:00,
2013-02-24 01:48:00,46.0,39.0,30.75,ENE,61,2.0,-999.0,76,-99.99,,,0.00,weatherlink.com 1.10,2013-02-24 07:48:00,
2013-02-24 01:58:00,47.2,39.0,30.75,East,82,2.0,-999.0,73,-99.99,,,0.00,weatherlink.com 1.10,2013-02-24 07:58:00,
2013-02-24 02:13:00,47.3,38.0,30.74,East,86,1.0,-999.0,71,-99.99,,,0.00,weatherlink.com 1.10,2013-02-24 08:13:00,
2013-02-24 02:28:00,47.3,38.0,30.73,ENE,77,3.0,-999.0,71,-99.99,,,0.00,weatherlink.com 1.10,2013-02-24 08:28:00,
2013-02-24 02:48:00,47.8,39.0,30.72,ENE,67,0.0,-999.0,71,-99.99,,,0.00,weatherlink.com 1.10,2013-02-24 08:48:00,
2013-02-24 02:58:00,48.3,39.0,30.71,ENE,65,5.0,-999.0,71,-99.99,,,0.00,weatherlink.com 1.10,2013-02-24 08:58:00,
2013-02-24 03:13:00,48.1,39.0,30.70,ENE,77,3.0,-999.0,72,-99.99,,,0.00,weatherlink.com 1.10,2013-02-24 09:13:00,
2013-02-24 03:28:00,48.1,40.0,30.69,ENE,69,0.0,-999.0,73,-99.99,,,0.00,weatherlink.com 1.10,2013-02-24 09:28:00,
2013-02-24 03:48:00,48.2,40.0,30.69,East,80,0.0,-999.0,73,-99.99,,,0.00,weatherlink.com 1.10,2013-02-24 09:48:00,
2013-02-24 03:58:00,48.2,40.0,30.70,ENE,73,4.0,-999.0,74,-99.99,,,0.00,weatherlink.com 1.10,2013-02-24 09:58:00,
2013-02-24 04:13:00,47.9,40.0,30.70,East,96,3.0,-999.0,75,-99.99,,,0.00,weatherlink.com 1.10,2013-02-24 10:13:00,
2013-02-24 04:28:00,47.5,40.0,30.70,East,89,3.0,-999.0,76,-99.99,,,0.00,weatherlink.com 1.10,2013-02-24 10:28:00,
2013-02-24 04:48:00,47.1,40.0,30.70,East,90,1.0,-999.0,77,-99.99,,,0.00,weatherlink.com 1.10,2013-02-24 10:48:00,
2013-02-24 04:58:00,46.7,41.0,30.71,East,96,5.0,-999.0,79,-99.99,,,0.00,weatherlink.com 1.10,2013-02-24 10:58:00,
2013-02-24 05:13:00,46.6,41.0,30.71,East,84,5.0,-999.0,80,-99.99,,,0.00,weatherlink.com 1.10,2013-02-24 11:13:00,
2013-02-24 05:28:00,47.1,42.0,30.71,ESE,104,0.0,-999.0,81,-99.99,,,0.00,weatherlink.com 1.10,2013-02-24 11:28:00,
2013-02-24 05:48:00,47.2,42.0,30.71,East,95,2.0,-999.0,81,-99.99,,,0.00,weatherlink.com 1.10,2013-02-24 11:48:00,
2013-02-24 05:58:00,46.8,42.0,30.73,East,92,0.0,-999.0,83,-99.99,,,0.00,weatherlink.com 1.10,2013-02-24 11:58:00,
2013-02-24 06:13:00,46.7,42.0,30.72,East,101,3.0,-999.0,84,-99.99,,,0.00,weatherlink.com 1.10,2013-02-24 12:13:00,
2013-02-24 06:28:00,46.7,43.0,30.72,ESE,123,0.0,-999.0,85,-99.99,,,0.00,weatherlink.com 1.10,2013-02-24 12:28:00,
2013-02-24 06:48:00,46.8,43.0,30.72,ESE,109,1.0,-999.0,85,-99.99,,,0.00,weatherlink.com 1.10,2013-02-24 12:48:00,
2013-02-24 06:58:00,47.0,43.0,30.73,East,94,2.0,-999.0,86,-99.99,,,0.00,weatherlink.com 1.10,2013-02-24 12:58:00,
2013-02-24 07:13:00,47.0,43.0,30.73,East,79,0.0,-999.0,86,-99.99,,,0.00,weatherlink.com 1.10,2013-02-24 13:13:00,
2013-02-24 07:28:00,47.5,44.0,30.73,ESE,105,1.0,-999.0,87,-99.99,,,0.00,weatherlink.com 1.10,2013-02-24 13:28:00,
2013-02-24 07:48:00,48.7,45.0,30.73,ESE,107,3.0,-999.0,86,-99.99,,,0.00,weatherlink.com 1.10,2013-02-24 13:48:00,
2013-02-24 07:58:00,50.2,46.0,30.74,East,98,3.0,-999.0,84,-99.99,,,0.00,weatherlink.com 1.10,2013-02-24 13:58:00,
2013-02-24 08:13:00,51.4,46.0,30.74,East,93,5.0,-999.0,83,-99.99,,,0.00,weatherlink.com 1.10,2013-02-24 14:13:00,
2013-02-24 08:28:00,52.8,47.0,30.74,ESE,111,5.0,-999.0,81,-99.99,,,0.00,weatherlink.com 1.10,2013-02-24 14:28:00,
2013-02-24 08:48:00,54.1,47.0,30.74,East,88,10.0,-999.0,78,-99.99,,,0.00,weatherlink.com 1.10,2013-02-24 14:48:00,
2013-02-24 08:58:00,55.5,48.0,30.74,ESE,117,0.0,-999.0,76,-99.99,,,0.00,weatherlink.com 1.10,2013-02-24 14:58:00,
2013-02-24 09:13:00,56.8,48.0,30.74,East,85,3.0,-999.0,73,-99.99,,,0.00,weatherlink.com 1.10,2013-02-24 15:13:00,
2013-02-24 09:28:00,57.8,48.0,30.73,ESE,115,4.0,-999.0,70,-99.99,,,0.00,weatherlink.com 1.10,2013-02-24 15:28:00,
2013-02-24 09:48:00,58.8,49.0,30.73,East,99,0.0,-999.0,70,-99.99,,,0.00,weatherlink.com 1.10,2013-02-24 15:48:00,
2013-02-24 09:58:00,59.7,49.0,30.73,ESE,117,4.0,-999.0,67,-99.99,,,0.00,weatherlink.com 1.10,2013-02-24 15:58:00,
2013-02-24 10:13:00,60.7,49.0,30.72,East,86,4.0,-999.0,66,-99.99,,,0.00,weatherlink.com 1.10,2013-02-24 16:13:00,
2013-02-24 10:29:00,61.8,49.0,30.72,East,88,7.0,-999.0,63,-99.99,,,0.00,weatherlink.com 1.10,2013-02-24 16:29:00,
2013-02-24 10:49:00,62.6,49.0,30.72,East,80,5.0,-999.0,61,-99.99,,,0.00,weatherlink.com 1.10,2013-02-24 16:49:00,
2013-02-24 10:59:00,63.6,49.0,30.71,East,86,6.0,-999.0,60,-99.99,,,0.00,weatherlink.com 1.10,2013-02-24 16:59:00,
2013-02-24 11:14:00,64.0,49.0,30.70,SE,146,0.0,-999.0,58,-99.99,,,0.00,weatherlink.com 1.10,2013-02-24 17:14:00,
2013-02-24 11:29:00,65.3,49.0,30.70,ESE,115,6.0,-999.0,57,-99.99,,,0.00,weatherlink.com 1.10,2013-02-24 17:29:00,
2013-02-24 11:49:00,66.5,49.0,30.70,SE,144,5.0,-999.0,53,-99.99,,,0.00,weatherlink.com 1.10,2013-02-24 17:49:00,
2013-02-24 11:59:00,67.1,49.0,30.68,SSE,165,0.0,-999.0,52,-99.99,,,0.00,weatherlink.com 1.10,2013-02-24 17:59:00,
2013-02-24 12:14:00,68.0,47.0,30.67,SE,141,5.0,-999.0,48,-99.99,,,0.00,weatherlink.com 1.10,2013-02-24 18:14:00,
2013-02-24 12:29:00,68.1,49.0,30.66,SE,126,3.0,-999.0,50,-99.99,,,0.00,weatherlink.com 1.10,2013-02-24 18:29:00,
2013-02-24 12:49:00,68.4,48.0,30.65,SSE,153,4.0,-999.0,49,-99.99,,,0.00,weatherlink.com 1.10,2013-02-24 18:49:00,
2013-02-24 12:59:00,68.7,49.0,30.64,SE,141,2.0,-999.0,49,-99.99,,,0.00,weatherlink.com 1.10,2013-02-24 18:59:00,
2013-02-24 13:14:00,69.0,49.0,30.62,ENE,59,3.0,-999.0,49,-99.99,,,0.00,weatherlink.com 1.10,2013-02-24 19:14:00,
2013-02-24 13:29:00,70.1,49.0,30.61,South,188,3.0,-999.0,47,-99.99,,,0.00,weatherlink.com 1.10,2013-02-24 19:29:00,
2013-02-24 13:49:00,69.7,48.0,30.60,SE,133,4.0,-999.0,46,-99.99,,,0.00,weatherlink.com 1.10,2013-02-24 19:49:00,
2013-02-24 13:59:00,70.5,48.0,30.60,East,92,7.0,-999.0,45,-99.99,,,0.00,weatherlink.com 1.10,2013-02-24 19:59:00,
2013-02-24 14:14:00,70.8,48.0,30.59,ESE,107,4.0,-999.0,44,-99.99,,,0.00,weatherlink.com 1.10,2013-02-24 20:14:00,
2013-02-24 14:29:00,71.0,49.0,30.59,SE,146,3.0,-999.0,45,-99.99,,,0.00,weatherlink.com 1.10,2013-02-24 20:29:00,
2013-02-24 14:49:00,70.8,48.0,30.58,SE,146,3.0,-999.0,45,-99.99,,,0.00,weatherlink.com 1.10,2013-02-24 20:49:00,
2013-02-24 14:59:00,71.2,50.0,30.57,South,174,6.0,-999.0,47,-99.99,,,0.00,weatherlink.com 1.10,2013-02-24 20:59:00,
2013-02-24 15:14:00,71.8,50.0,30.56,SE,144,7.0,-999.0,46,-99.99,,,0.00,weatherlink.com 1.10,2013-02-24 21:14:00,
2013-02-24 15:29:00,70.9,50.0,30.55,East,90,7.0,-999.0,47,-99.99,,,0.00,weatherlink.com 1.10,2013-02-24 21:29:00,
2013-02-24 15:49:00,70.1,50.0,30.54,SE,138,3.0,-999.0,50,-99.99,,,0.00,weatherlink.com 1.10,2013-02-24 21:49:00,
2013-02-24 15:59:00,69.5,49.0,30.55,SSE,150,7.0,-999.0,49,-99.99,,,0.00,weatherlink.com 1.10,2013-02-24 21:59:00,
2013-02-24 16:14:00,68.7,49.0,30.55,SSE,148,4.0,-999.0,50,-99.99,,,0.00,weatherlink.com 1.10,2013-02-24 22:14:00,
2013-02-24 16:29:00,68.4,51.0,30.54,East,84,3.0,-999.0,54,-99.99,,,0.00,weatherlink.com 1.10,2013-02-24 22:29:00,
2013-02-24 16:49:00,68.2,52.0,30.54,SSE,149,2.0,-999.0,56,-99.99,,,0.00,weatherlink.com 1.10,2013-02-24 22:49:00,
2013-02-24 16:59:00,68.3,50.0,30.54,ESE,120,6.0,-999.0,53,-99.99,,,0.00,weatherlink.com 1.10,2013-02-24 22:59:00,
2013-02-24 17:14:00,67.6,50.0,30.53,ESE,113,4.0,-999.0,54,-99.99,,,0.00,weatherlink.com 1.10,2013-02-24 23:14:00,
2013-02-24 17:29:00,66.7,51.0,30.53,ESE,119,2.0,-999.0,57,-99.99,,,0.00,weatherlink.com 1.10,2013-02-24 23:29:00,
2013-02-24 17:50:00,65.9,51.0,30.53,ESE,110,0.0,-999.0,60,-99.99,,,0.00,weatherlink.com 1.10,2013-02-24 23:50:00,
2013-02-24 18:00:00,65.6,52.0,30.53,SE,132,1.0,-999.0,61,-99.99,,,0.00,weatherlink.com 1.10,2013-02-25 00:00:00,
2013-02-24 18:15:00,65.3,52.0,30.53,ESE,102,0.0,-999.0,62,-99.99,,,0.00,weatherlink.com 1.10,2013-02-25 00:15:00,
2013-02-24 18:30:00,65.0,52.0,30.53,SE,136,3.0,-999.0,62,-99.99,,,0.00,weatherlink.com 1.10,2013-02-25 00:30:00,
2013-02-24 18:49:00,64.8,52.0,30.54,ESE,113,1.0,-999.0,63,-99.99,,,0.00,weatherlink.com 1.10,2013-02-25 00:49:00,
2013-02-24 18:59:00,64.6,52.0,30.53,ESE,103,2.0,-999.0,64,-99.99,,,0.00,weatherlink.com 1.10,2013-02-25 00:59:00,
2013-02-24 19:14:00,64.5,52.0,30.53,SE,126,0.0,-999.0,64,-99.99,,,0.00,weatherlink.com 1.10,2013-02-25 01:14:00,
2013-02-24 19:29:00,64.4,52.0,30.53,ESE,103,3.0,-999.0,64,-99.99,,,0.00,weatherlink.com 1.10,2013-02-25 01:29:00,
2013-02-24 19:49:00,64.3,52.0,30.53,East,98,1.0,-999.0,64,-99.99,,,0.00,weatherlink.com 1.10,2013-02-25 01:49:00,
2013-02-24 19:59:00,64.1,52.0,30.53,ESE,110,2.0,-999.0,64,-99.99,,,0.00,weatherlink.com 1.10,2013-02-25 01:59:00,
2013-02-24 20:14:00,64.1,52.0,30.53,East,85,3.0,-999.0,64,-99.99,,,0.00,weatherlink.com 1.10,2013-02-25 02:14:00,
2013-02-24 20:29:00,64.1,52.0,30.52,ESE,117,2.0,-999.0,64,-99.99,,,0.00,weatherlink.com 1.10,2013-02-25 02:29:00,
2013-02-24 20:50:00,63.8,52.0,30.52,East,92,3.0,-999.0,65,-99.99,,,0.00,weatherlink.com 1.10,2013-02-25 02:50:00,
2013-02-24 21:00:00,63.6,52.0,30.53,ESE,119,0.0,-999.0,65,-99.99,,,0.00,weatherlink.com 1.10,2013-02-25 03:00:00,
2013-02-24 21:15:00,63.4,51.0,30.52,ESE,109,4.0,-999.0,64,-99.99,,,0.00,weatherlink.com 1.10,2013-02-25 03:15:00,
2013-02-24 21:30:00,63.3,50.0,30.52,ESE,112,0.0,-999.0,62,-99.99,,,0.00,weatherlink.com 1.10,2013-02-25 03:30:00,
2013-02-24 21:49:00,63.1,50.0,30.52,SE,131,3.0,-999.0,62,-99.99,,,0.00,weatherlink.com 1.10,2013-02-25 03:49:00,
2013-02-24 21:59:00,63.0,50.0,30.51,SE,126,3.0,-999.0,63,-99.99,,,0.00,weatherlink.com 1.10,2013-02-25 03:59:00,
2013-02-24 22:14:00,62.6,50.0,30.50,East,96,5.0,-999.0,64,-99.99,,,0.00,weatherlink.com 1.10,2013-02-25 04:14:00,
2013-02-24 22:30:00,62.5,51.0,30.49,ESE,121,3.0,-999.0,66,-99.99,,,0.00,weatherlink.com 1.10,2013-02-25 04:30:00,
2013-02-24 22:50:00,62.4,52.0,30.49,ESE,109,5.0,-999.0,68,-99.99,,,0.00,weatherlink.com 1.10,2013-02-25 04:50:00,
2013-02-24 23:15:00,62.0,52.0,30.47,ESE,108,4.0,-999.0,71,-99.99,,,0.00,weatherlink.com 1.10,2013-02-25 05:15:00,
2013-02-24 23:30:00,61.7,53.0,30.46,ESE,120,0.0,-999.0,73,-99.99,,,0.00,weatherlink.com 1.10,2013-02-25 05:30:00,
2013-02-24 23:50:00,61.5,53.0,30.44,ESE,119,0.0,-999.0,74,-99.99,,,0.00,weatherlink.com 1.10,2013-02-25 05:50:00,